Edwards AFB North Base, CA

4:39 PM PST on November 17, 2019 (GMT -0800)
Edwards AFB North Base

Weather History for K9L2 - September, 2019

Change the Weather History Date:

Tuesday, September 3, 2019

  Actual Average (WUND) Record (WUND)
Temperature  
Mean Temperature 85 °F -  
Max Temperature 101 °F - - (-1)
Min Temperature 70 °F - - (-1)
Cooling Degree Days 20    
Growing Degree Days 35 (Base 50)    
Moisture  
Dew Point 52 °F    
Average Humidity 34    
Maximum Humidity 56    
Minimum Humidity 16    
Precipitation  
Precipitation 0.00 in - - ()
Sea Level Pressure  
Sea Level Pressure 29.87 in    
Wind  
Wind Speed 3 mph ()    
Max Wind Speed 17 mph    
Max Gust Speed 25 mph    
Visibility 9.0 miles    
Events      
Averages and records for this station are not official NWS values.
T = Trace of Precipitation, MM = Missing Value Source: Averaged Metar Reports

Daily Weather History Graph

Daily Weather History Graph

Search for Another Location

Airport or City:

Astronomy

Sep. 03, 2019 Rise Set
Actual Time 6:25 AM PDT 7:15 PM PDT
Civil Twilight 5:59 AM PDT 7:41 PM PDT
Nautical Twilight 5:29 AM PDT 8:11 PM PDT
Astronomical Twilight 4:57 AM PDT 8:42 PM PDT
Moon 11:12 AM PDT (9/3) 10:27 PM PDT (9/3)
Length of Visible Light 13h 41m
Length of Day
12h 49m
Waxing Crescent, 25% of the Moon is Illuminated
Sep 3
Waxing Crescent
Sep 5
First Quarter
Sep 13
Full
Sep 21
Last Quarter
Sep 28
New

Hourly Weather History & Observations

Time (PDT) Temp. Heat Index Dew Point Humidity Pressure Visibility Wind Dir Wind Speed Gust Speed Precip Events Conditions
12:43 AM 80.6 °F 80.5 °F 55.4 °F 42% 29.90 in 9.0 mi South 3.5 mph - N/A   Mostly Cloudy
12:58 AM 80.2 °F 80.4 °F 56.5 °F 44% 29.90 in 9.0 mi SSW 3.5 mph - N/A   Mostly Cloudy
1:13 AM 78.8 °F - 55.4 °F 44% 29.90 in 9.0 mi Calm Calm - N/A   Scattered Clouds
1:28 AM 78.8 °F - 55.4 °F 44% 29.90 in 9.0 mi Calm Calm - N/A   Mostly Cloudy
1:58 AM 79.2 °F - 55.9 °F 45% 29.90 in 10.0 mi Calm Calm - N/A   Scattered Clouds
2:58 AM 75.6 °F - 52.9 °F 45% 29.91 in 10.0 mi SSE 6.9 mph - N/A   Clear
3:58 AM 73.8 °F - 54.1 °F 50% 29.91 in 10.0 mi Calm Calm - N/A   Clear
4:58 AM 72.5 °F - 54.7 °F 53% 29.90 in 10.0 mi SSE 5.8 mph - N/A   Clear
5:58 AM 70.5 °F - 54.1 °F 56% 29.91 in 10.0 mi Calm Calm - N/A   Clear
6:58 AM 70.0 °F - 51.1 °F 51% 29.92 in 10.0 mi Calm Calm - N/A   Clear
7:58 AM 74.7 °F - 52.3 °F 46% 29.94 in 8.0 mi South 3.5 mph - N/A   Clear
8:58 AM 79.7 °F - 52.5 °F 39% 29.94 in 9.0 mi Calm Calm - N/A   Clear
9:58 AM 86.7 °F - 51.1 °F 29% 29.94 in 8.0 mi Calm Calm - N/A   Clear
10:58 AM 90.1 °F - 48.7 °F 24% 29.93 in 9.0 mi Calm Calm - N/A   Clear
11:58 AM 95.2 °F - 49.1 °F 21% 29.89 in 9.0 mi East 3.5 mph - N/A   Clear
12:58 PM 97.3 °F - 48.7 °F 19% 29.87 in 9.0 mi SSE 3.5 mph - N/A   Clear
1:58 PM 98.8 °F - 48.2 °F 18% 29.85 in 8.0 mi WSW 4.6 mph - N/A   Clear
2:58 PM 98.8 °F - 48.9 °F 18% 29.82 in 9.0 mi SE 3.5 mph - N/A   Clear
3:58 PM 99.9 °F - 47.3 °F 17% 29.80 in 9.0 mi SE 5.8 mph - N/A   Clear
4:58 PM 100.8 °F - 46.4 °F 16% 29.79 in 8.0 mi SSE 5.8 mph - N/A   Clear
5:58 PM 99.1 °F 97.1 °F 53.8 °F 22% 29.79 in 7.0 mi SSW 17.3 mph 21.9 mph N/A   Clear
6:58 PM 93.4 °F 91.0 °F 53.4 °F 26% 29.81 in 7.0 mi SSW 16.1 mph 25.3 mph N/A   Clear
7:58 PM 89.6 °F - 50.0 °F 26% 29.82 in 8.0 mi SW 11.5 mph - N/A   Clear
8:58 PM 87.6 °F - 49.5 °F 27% 29.84 in 10.0 mi South 9.2 mph - N/A   Clear
9:58 PM 84.7 °F - 50.7 °F 31% 29.84 in 10.0 mi SSW 10.4 mph - N/A   Clear
10:58 PM 83.5 °F - 50.5 °F 32% 29.84 in 10.0 mi SSW 9.2 mph - N/A   Clear
11:58 PM 82.9 °F - 50.0 °F 32% 29.84 in 10.0 mi SSW 9.2 mph - N/A   Clear